Location: Beuerbach
(48.1459°N, 10.9174°E)
Time: 02:00:48
(UTC+00:00)

DELTA 2 R/B (1) - Pass Details

Date: 23 May 2024
Orbit: 788 x 801 km, 39.6° (Epoch: 19 June)

Event Time Altitude Azimuth Distance (km) Brightness Sun altitude
Exits shadow 02:07:04 10° 252° (WSW) 2,366 5.5 -11.0°
Reaches altitude 10° 02:07:06 10° 252° (WSW) 2,354 5.5 -11.0°
Maximum altitude 02:11:50 29° 193° (SSW) 1,407 4.4 -10.4°
Drops below altitude 10° 02:16:32 10° 135° (SE) 2,344 6.0 -9.9°
Sets 02:19:17 0° 124° (SE) 3,271 6.9 -9.6°
